EW8310 Weather Reports


Display with metric or nautical units.
time (UTC)temp
F
wind
direction
speed
MPH
gust
MPH
rain 1hr
in
rain 24hr
in
rain mn
in
humidity
%
barometer
mb
20260504041139 74 289 1.0 5.0 0.00 0.00 0.00 25 1008.3
20260504040639 74 289 0.0 5.0 0.00 0.00 0.00 24 1008.2
20260504040139 75 279 1.0 11.0 0.00 0.00 0.00 23 1008.1
20260504035640 75 285 4.0 11.0 0.00 0.00 0.00 23 1007.9
20260504035139 75 276 2.0 6.0 0.00 0.00 0.00 22 1007.7
20260504034639 75 296 0.0 9.0 0.00 0.00 0.00 22 1007.6
20260504034359 76 309 1.0 9.0 0.00 0.00 0.00 22 1007.5
20260504033638 76 262 1.0 11.0 0.00 0.00 0.00 21 1007.5
20260504033138 76 258 4.0 11.0 0.00 0.00 0.00 21 1007.4
20260504032642 76 250 2.0 13.0 0.00 0.00 0.00 20 1007.3
20260504032638 76 272 3.0 11.0 0.00 0.00 0.00 21 1007.4
20260504031638 77 296 4.0 13.0 0.00 0.00 0.00 20 1007.3
20260504031138 77 279 2.0 12.0 0.00 0.00 0.00 19 1007.1
20260504030857 77 276 3.0 6.0 0.00 0.00 0.00 19 1007.0
20260504030138 77 234 0.0 4.0 0.00 0.00 0.00 19 1006.8
20260504025635 78 281 1.0 6.0 0.00 0.00 0.00 18 1006.5
20260504025137 78 290 3.0 10.0 0.00 0.00 0.00 18 1006.4
20260504024637 78 251 2.0 10.0 0.00 0.00 0.00 18 1006.3
20260504024137 78 264 3.0 7.0 0.00 0.00 0.00 17 1006.2
20260504023637 79 299 2.0 7.0 0.00 0.00 0.00 17 1006.1
20260504023137 79 289 3.0 11.0 0.00 0.00 0.00 16 1006.0
20260504022637 80 290 5.0 12.0 0.00 0.00 0.00 16 1005.8
20260504022132 80 336 4.0 12.0 0.00 0.00 0.00 15 1005.8
20260504021632 80 307 7.0 14.0 0.00 0.00 0.00 15 1005.7
20260504021359 80 298 7.0 14.0 0.00 0.00 0.00 15 1005.7
20260504020637 81 289 2.0 12.0 0.00 0.00 0.00 15 1005.6
20260504020405 81 272 6.0 12.0 0.00 0.00 0.00 14 1005.6
20260504015636 82 268 3.0 10.0 0.00 0.00 0.00 13 1005.6
20260504015136 82 275 4.0 11.0 0.00 0.00 0.00 13 1005.5
20260504014635 82 288 4.0 15.0 0.00 0.00 0.00 13 1005.5
20260504014405 83 316 6.0 15.0 0.00 0.00 0.00 12 1005.6
20260504013635 83 228 6.0 12.0 0.00 0.00 0.00 12 1005.5
20260504013136 84 268 3.0 12.0 0.00 0.00 0.00 12 1005.3
20260504012633 84 183 4.0 13.0 0.00 0.00 0.00 12 1005.2
20260504012135 85 255 5.0 13.0 0.00 0.00 0.00 11 1005.2
20260504011855 85 255 4.0 12.0 0.00 0.00 0.00 11 1005.5
20260504011135 85 275 3.0 12.0 0.00 0.00 0.00 12 1005.5
20260504010635 86 290 2.0 11.0 0.00 0.00 0.00 12 1005.5
20260504010400 86 212 2.0 10.0 0.00 0.00 0.00 12 1005.6
20260504005635 85 262 4.0 12.0 0.00 0.00 0.00 12 1005.7
20260504005131 85 221 6.0 14.0 0.00 0.00 0.00 12 1005.6
20260504004631 86 241 7.0 20.0 0.00 0.00 0.00 12 1005.6
20260504004134 86 279 6.0 20.0 0.00 0.00 0.00 12 1005.7
20260504003634 87 227 7.0 17.0 0.00 0.00 0.00 12 1005.5
20260504003134 87 259 6.0 18.0 0.00 0.00 0.00 12 1005.6
20260504002634 87 278 6.0 18.0 0.00 0.00 0.00 12 1005.5
20260504002135 88 279 6.0 14.0 0.00 0.00 0.00 12 1005.3
20260504001634 88 257 6.0 20.0 0.00 0.00 0.00 12 1005.5
20260504001359 88 250 6.0 20.0 0.00 0.00 0.00 12 1005.3
20260504000634 89 268 8.0 17.0 0.00 0.00 0.00 12 1005.2
20260504000133 89 221 8.0 17.0 0.00 0.00 0.00 12 1005.3
20260503235633 89 293 5.0 14.0 0.00 0.00 0.00 12 1005.1
20260503235351 89 247 6.0 14.0 0.00 0.00 0.00 12 1005.2
20260503234632 89 243 4.0 16.0 0.00 0.00 0.00 12 1005.0
20260503234359 90 166 7.0 16.0 0.00 0.00 0.00 12 1004.9
20260503233633 90 207 7.0 16.0 0.00 0.00 0.00 12 1004.8
20260503233133 90 248 6.0 16.0 0.00 0.00 0.00 12 1004.9
20260503232633 90 210 4.0 19.0 0.00 0.00 0.00 12 1004.9
20260503232351 90 292 4.0 19.0 0.00 0.00 0.00 13 1005.0
20260503231858 90 157 3.0 14.0 0.00 0.00 0.00 14 1005.0
20260503231132 90 212 7.0 14.0 0.00 0.00 0.00 14 1005.0
20260503230632 91 180 3.0 12.0 0.00 0.00 0.00 14 1005.0
20260503230132 90 247 5.0 13.0 0.00 0.00 0.00 14 1005.0
20260503225632 91 241 4.0 13.0 0.00 0.00 0.00 14 1005.2
20260503225353 91 212 1.0 11.0 0.00 0.00 0.00 14 1005.2
20260503224628 91 279 6.0 13.0 0.00 0.00 0.00 14 1005.3
20260503224128 91 178 3.0 14.0 0.00 0.00 0.00 13 1005.3
20260503223855 91 243 7.0 14.0 0.00 0.00 0.00 13 1005.5
20260503223131 91 199 4.0 7.0 0.00 0.00 0.00 14 1005.3
20260503222631 90 168 1.0 7.0 0.00 0.00 0.00 13 1005.5
20260503222131 90 110 3.0 11.0 0.00 0.00 0.00 15 1005.5
20260503221632 89 157 4.0 11.0 0.00 0.00 0.00 15 1005.6
20260503221131 89 203 4.0 7.0 0.00 0.00 0.00 17 1005.6
20260503220631 88 141 3.0 6.0 0.00 0.00 0.00 18 1005.5
20260503220131 88 193 2.0 6.0 0.00 0.00 0.00 21 1005.7
20260503215631 87 140 2.0 9.0 0.00 0.00 0.00 20 1005.6
20260503215127 87 0 2.0 9.0 0.00 0.00 0.00 20 1005.6
20260503214858 87 113 0.0 7.0 0.00 0.00 0.00 23 1005.9
20260503214130 87 99 2.0 7.0 0.00 0.00 0.00 24 1006.1
20260503213630 86 69 3.0 5.0 0.00 0.00 0.00 23 1006.0
20260503213131 87 21 2.0 5.0 0.00 0.00 0.00 23 1006.2
20260503212630 87 182 1.0 4.0 0.00 0.00 0.00 23 1006.3
20260503212130 87 282 1.0 4.0 0.00 0.00 0.00 23 1006.5
20260503211626 87 326 2.0 4.0 0.00 0.00 0.00 23 1006.5
20260503211126 86 195 0.0 5.0 0.00 0.00 0.00 24 1006.5
20260503210631 86 142 3.0 9.0 0.00 0.00 0.00 24 1006.8
20260503210624 85 104 2.0 9.0 0.00 0.00 0.00 25 1006.6
20260503205629 85 80 4.0 9.0 0.00 0.00 0.00 25 1006.8
20260503205129 85 86 4.0 7.0 0.00 0.00 0.00 25 1006.9
20260503204629 85 169 2.0 6.0 0.00 0.00 0.00 24 1007.1
20260503204125 85 164 2.0 7.0 0.00 0.00 0.00 24 1007.2
20260503203625 85 180 4.0 11.0 0.00 0.00 0.00 24 1007.2
20260503203125 85 85 2.0 11.0 0.00 0.00 0.00 24 1007.2
20260503202625 85 103 2.0 5.0 0.00 0.00 0.00 22 1007.3
20260503202128 85 85 2.0 5.0 0.00 0.00 0.00 22 1007.3
20260503201629 85 89 1.0 7.0 0.00 0.00 0.00 22 1007.3
20260503201128 85 151 1.0 11.0 0.00 0.00 0.00 22 1007.4
20260503200628 85 166 6.0 11.0 0.00 0.00 0.00 22 1007.6
20260503200127 85 158 0.0 6.0 0.00 0.00 0.00 24 1007.6
20260503195624 85 244 1.0 3.0 0.00 0.00 0.00 24 1007.8
20260503195124 85 351 0.0 7.0 0.00 0.00 0.00 23 1007.8
20260503194624 85 255 3.0 7.0 0.00 0.00 0.00 24 1007.8
20260503194127 84 171 2.0 6.0 0.00 0.00 0.00 25 1007.8
20260503193628 84 157 2.0 6.0 0.00 0.00 0.00 24 1007.9
20260503193127 84 203 3.0 6.0 0.00 0.00 0.00 26 1008.1
20260503192627 84 219 4.0 7.0 0.00 0.00 0.00 25 1008.2
20260503192127 84 151 3.0 11.0 0.00 0.00 0.00 25 1008.2
20260503191622 84 224 4.0 11.0 0.00 0.00 0.00 24 1008.2
20260503191122 84 197 3.0 7.0 0.00 0.00 0.00 26 1008.2
20260503190623 83 192 3.0 7.0 0.00 0.00 0.00 26 1008.2
20260503190123 83 104 3.0 7.0 0.00 0.00 0.00 27 1008.4
20260503185626 83 107 3.0 7.0 0.00 0.00 0.00 27 1008.4
20260503185126 83 220 3.0 7.0 0.00 0.00 0.00 27 1008.6
20260503184626 83 142 2.0 7.0 0.00 0.00 0.00 28 1008.7
20260503184126 83 180 4.0 7.0 0.00 0.00 0.00 28 1008.8
20260503183626 83 154 5.0 7.0 0.00 0.00 0.00 27 1008.9
20260503183346 83 176 4.0 7.0 0.00 0.00 0.00 28 1008.9
20260503182626 83 145 2.0 6.0 0.00 0.00 0.00 28 1008.9
20260503182352 82 223 3.0 5.0 0.00 0.00 0.00 28 1009.1
20260503181847 82 161 3.0 5.0 0.00 0.00 0.00 29 1009.2
20260503181126 82 89 1.0 6.0 0.00 0.00 0.00 30 1009.4
20260503180626 82 90 3.0 7.0 0.00 0.00 0.00 29 1009.4
20260503180125 81 172 2.0 7.0 0.00 0.00 0.00 29 1009.4
20260503175851 81 87 2.0 5.0 0.00 0.00 0.00 30 1009.2
20260503175125 81 65 2.0 4.0 0.00 0.00 0.00 30 1009.5
20260503174849 81 82 1.0 7.0 0.00 0.00 0.00 29 1009.5
20260503174342 81 168 2.0 7.0 0.00 0.00 0.00 30 1009.6
20260503173621 81 83 4.0 7.0 0.00 0.00 0.00 30 1009.6
20260503173125 81 158 1.0 6.0 0.00 0.00 0.00 30 1009.7
20260503172624 81 152 2.0 7.0 0.00 0.00 0.00 30 1009.7
20260503172345 81 128 1.0 7.0 0.00 0.00 0.00 30 1009.6
20260503171124 81 157 2.0 6.0 0.00 0.00 0.00 30 1009.7
20260503170624 80 56 3.0 6.0 0.00 0.00 0.00 31 1009.8
20260503170123 80 106 2.0 6.0 0.00 0.00 0.00 30 1009.8
20260503160122 78 89 2.0 4.0 0.00 0.00 0.00 34 1009.8
20260503150621 72 200 0.0 0.0 0.00 0.00 0.00 45 1009.7
20260503150121 72 200 0.0 0.0 0.00 0.00 0.00 46 1009.7
20260503140120 67 258 0.0 0.0 0.00 0.00 0.00 53 1009.4
20260503131118 65 186 0.0 0.0 0.00 0.00 0.00 51 1008.9
20260503130838 65 186 0.0 0.0 0.00 0.00 0.00 51 1008.8
20260503130118 65 186 0.0 0.0 0.00 0.00 0.00 50 1008.6
20260503110115 67 212 0.0 0.0 0.00 0.00 0.00 46 1008.6
20260503100114 69 345 0.0 0.0 0.00 0.00 0.00 43 1008.6
20260503090112 74 78 0.0 2.0 0.00 0.00 0.00 33 1008.6
20260503081616 76 56 4.0 11.0 0.00 0.00 0.00 31 1008.8
20260503081112 76 59 4.0 11.0 0.00 0.00 0.00 31 1008.8
20260503080612 76 51 4.0 11.0 0.00 0.00 0.00 31 1008.9
20260503080111 76 65 6.0 11.0 0.00 0.00 0.00 31 1009.0
20260503072610 77 58 5.0 14.0 0.00 0.00 0.00 30 1008.9
20260503072110 77 73 5.0 12.0 0.00 0.00 0.00 30 1008.9
20260503071610 77 56 6.0 14.0 0.00 0.00 0.00 29 1009.0
20260503071111 77 79 5.0 15.0 0.00 0.00 0.00 29 1008.8
20260503070842 77 59 6.0 15.0 0.00 0.00 0.00 29 1009.0
20260503070110 77 59 3.0 11.0 0.00 0.00 0.00 29 1008.9
20260503060336 78 38 6.0 15.0 0.00 0.00 0.00 29 1008.3
20260503055108 78 86 7.0 16.0 0.00 0.00 0.00 29 1008.3
20260503054608 78 59 7.0 15.0 0.00 0.00 0.00 29 1008.2
20260503054108 78 71 9.0 15.0 0.00 0.00 0.00 29 1008.2
20260503053608 78 49 6.0 16.0 0.00 0.00 0.00 29 1008.3
20260503053108 78 80 7.0 16.0 0.00 0.00 0.00 29 1008.3
20260503052608 78 35 7.0 14.0 0.00 0.00 0.00 29 1008.5
20260503052108 78 63 5.0 18.0 0.00 0.00 0.00 29 1008.5
20260503052057 78 61 8.0 18.0 0.00 0.00 0.00 29 1008.6
20260503051107 78 55 5.0 12.0 0.00 0.00 0.00 29 1008.5
20260503050608 78 69 3.0 14.0 0.00 0.00 0.00 29 1008.5
20260503050107 78 24 4.0 14.0 0.00 0.00 0.00 29 1008.5
20260503045606 78 75 8.0 14.0 0.00 0.00 0.00 28 1008.4
20260503045106 78 21 6.0 16.0 0.00 0.00 0.00 28 1008.4
20260503044831 78 69 6.0 16.0 0.00 0.00 0.00 28 1008.4
20260503044107 78 48 6.0 18.0 0.00 0.00 0.00 28 1008.4
20260503043607 78 96 8.0 18.0 0.00 0.00 0.00 28 1008.3
20260503043106 78 52 4.0 16.0 0.00 0.00 0.00 28 1008.2
20260503042606 78 80 4.0 16.0 0.00 0.00 0.00 28 1008.1
20260503042106 78 61 5.0 12.0 0.00 0.00 0.00 27 1007.9
20260503041606 78 58 5.0 15.0 0.00 0.00 0.00 27 1007.8